Location: Opava
(49.9500°N, 17.9170°E)
Time: 03:12:30
(UTC+01:00)

ISS - Pass Details

Date: 08 October 2020
Orbit: 417 x 420 km, 51.6° (Epoch: 25 October)

Event Time Altitude Azimuth Distance (km) Brightness Sun altitude
Rises 18:46:56 0° 283° (WNW) 2,368 1.9 -6.6°
Reaches altitude 10° 18:49:32 10° 263° (W) 1,501 0.8 -7.0°
Maximum altitude 18:51:48 17° 220° (SW) 1,144 -1.0 -7.4°
Drops below altitude 10° 18:54:03 10° 178° (S) 1,495 -1.0 -7.7°
Sets 18:56:38 0° 157° (SSE) 2,354 -0.2 -8.1°
